Content
SEND FEEDBACK

Daily
Averages
Monthly
Summary
United States of America

ASATDAS, GUAM


Home > North America > United States > Guam
Elevation: 186 meters     Latitude: 13 35N     Longitude: 144 56E

WEATHER
 
SELECT A DAY
Number of Records: 209,044;   Date Range: 1/1/95 - 7/29/14
 
SHARE

PRINT THIS DATA

[ ← Previous Day ]
WEATHER ALMANAC - 18 OCTOBER, 2013
[ Next Day → ]
[ °F ]   °C
Weather ElementAverageHighLow
Temperature26.2 °C28.3 °C (12:54 pm)24 °C (5:46 am)
Dewpoint24.7 °C26 °C (10:58 am)23.9 °C (1:54 am)
Humidity92 %100 % (5:31 am)79 % (2:19 pm)
Barometer1003.7 hPa1005.8 hPa (9:19 am)1001.4 hPa (2:54 pm)
Wind Speed28.2 km/h48.1 km/h (2:48 am)
Wind Gust64.9 km/h (2:20 am)
Weather ElementAverage
Visibility9.7 km
Wind DirectionSSE (153.7 °)

Weather ElementTotal
Precipitation211.58 mm
Cooling Degree Days7.8 (Base 18.3)
Growing Degree Days16.2 (Base 10)
Averaged from 70 records on 18 October, 2013
WEATHER CONDITIONS BREAKOUT
WIND DIRECTION BREAKOUT
WEATHER BY HOUR - 18 OCTOBER, 2013
[ °F ]   °C
Local TimeTemperatureDewpointHumidityBarometerVisibilityWind DirectionWind SpeedGust SpeedPrecipitationEventsConditions
1:12 AM26 °C24 °C89 %1004.1 hPa16.1 kmEast (100°)33.3 km/h53.8 km/h0 mmOvercast
1:51 AM26 °C24 °C89 %1003.7 hPa12.9 kmESE (110°)37 km/h61.2 km/h0.76 mmRainLight Rain
1:54 AM25.6 °C23.9 °C90 %1003 hPa11.3 kmEast (100°)42.6 km/h61.2 km/h0.76 mmRainRain
2:20 AM26 °C24 °C89 %1003 hPa11.3 kmEast (100°)37 km/h64.9 km/h0.51 mmRainLight Rain
2:48 AM26 °C24 °C89 %1002.7 hPa4 kmESE (110°)48.1 km/h64.9 km/h1.02 mmRainHeavy Rain
2:54 AM25 °C24.4 °C96 %1002 hPa6.4 kmESE (120°)33.3 km/h64.9 km/h1.78 mmRainLight Rain
3:21 AM26 °C24 °C89 %1002.7 hPa16.1 kmESE (110°)29.6 km/h55.5 km/h0.25 mmRainLight Rain
3:54 AM25.6 °C24.4 °C93 %1002 hPa16.1 kmESE (120°)25.9 km/h50.1 km/h0.25 mmMostly Cloudy
4:54 AM25.6 °C25 °C96 %1002 hPa2.9 kmESE (120°)16.7 km/h40.7 km/h5.84 mmRainHeavy Rain
5:15 AM26 °C25 °C94 %1003 hPa1.3 kmSSE (150°)25.9 km/h37 km/h10.67 mmRainHeavy Rain
5:31 AM25 °C25 °C100 %1002.7 hPa3.2 kmSE (140°)25.9 km/h55.5 km/h26.16 mmRainRain
5:34 AM25 °C25 °C100 %1002.7 hPa4.8 kmSSE (150°)27.8 km/h40.7 km/h26.42 mmRainRain
5:46 AM24 °C24 °C100 %1003 hPa12.9 kmSSE (150°)42.6 km/h59.2 km/h26.67 mmRainLight Rain
5:54 AM24.4 °C23.9 °C97 %1002.4 hPa9.7 kmSE (140°)31.5 km/h59.2 km/h26.67 mmRainRain
6:54 AM25 °C23.9 °C94 %1003.4 hPa11.3 kmSE (140°)29.6 km/h55.5 km/h0.51 mmRainLight Rain
7:01 AM25 °C24 °C94 %1004.4 hPa9.7 kmSE (130°)29.6 km/h50.1 km/h0.25 mmRainLight Rain
7:21 AM25 °C24 °C94 %1004.4 hPa6.4 kmSE (140°)22.2 km/h37 km/h1.27 mmRainRain
7:26 AM24 °C24 °C100 %1004.7 hPa6.4 kmSE (140°)31.5 km/h48.1 km/h1.52 mmRainLight Rain
7:54 AM25 °C23.9 °C94 %1004.1 hPa9.7 kmSE (140°)29.6 km/h48.1 km/h1.52 mmRainLight Rain
8:04 AM26 °C24 °C89 %1004.7 hPa3.2 kmSSE (150°)33.3 km/h57.5 km/h0.76 mmRainHeavy Rain
8:13 AM26 °C24 °C89 %1005.1 hPa4.8 kmSSE (150°)37 km/h61.2 km/h1.52 mmRainRain
8:27 AM25 °C24 °C94 %1005.4 hPa8 kmSE (140°)27.8 km/h53.8 km/h1.78 mmRainLight Rain
8:54 AM25 °C23.9 °C94 %1005.1 hPa9.7 kmSSE (150°)27.8 km/h2.79 mmRainLight Rain
9:19 AM26 °C24 °C89 %1005.8 hPa16.1 kmSE (140°)27.8 km/h42.6 km/h0 mmMostly Cloudy
9:54 AM26.1 °C24.4 °C90 %1004.1 hPa14.5 kmESE (120°)24.1 km/h40.7 km/h0 mmOvercast
10:17 AM26 °C25 °C94 %1005.4 hPa8 kmSSE (150°)29.6 km/h50.1 km/h0 mmRainLight Rain
10:26 AM26 °C24 °C89 %1005.4 hPa4 kmSouth (170°)31.5 km/h48.1 km/h0.25 mmRainLight Rain
10:28 AM26 °C25 °C94 %1005.4 hPa2.9 kmSSE (160°)29.6 km/h48.1 km/h0.51 mmRainHeavy Rain
10:42 AM25 °C24 °C94 %1005.1 hPa3.2 kmSSE (160°)18.5 km/h37 km/h4.83 mmRainRain
10:49 AM25 °C24 °C94 %1004.7 hPa1.6 kmSSE (160°)31.5 km/h42.6 km/h7.37 mmRainHeavy Rain
10:54 AM25.6 °C25 °C96 %1004.1 hPa1.9 kmSouth (170°)29.6 km/h46.3 km/h8.64 mmRainHeavy Rain
10:58 AM26 °C26 °C100 %1005.1 hPa4 kmSSE (160°)24.1 km/h46.3 km/h0 mmRainLight Rain
11:06 AM26 °C25 °C94 %1004.4 hPa6.4 kmSSE (150°)24.1 km/h38.9 km/h0.51 mmRainLight Rain
11:51 AM27 °C25 °C89 %1003.7 hPa16.1 kmSSE (160°)38.9 km/h53.8 km/h0.76 mmOvercast
11:54 AM27.2 °C25 °C88 %1003 hPa16.1 kmSSE (160°)38.9 km/h59.2 km/h0.76 mmOvercast
12:26 PM27 °C24 °C84 %1003.4 hPa11.3 kmSSE (150°)38.9 km/h61.2 km/h0 mmRainLight Rain
12:54 PM28.3 °C25 °C82 %1002.4 hPa16.1 kmSSE (160°)35.2 km/h61.2 km/h0 mmOvercast
1:03 PM27 °C25 °C89 %1003 hPa8 kmSSE (150°)33.3 km/h61.2 km/h0 mmRainRain
1:54 PM27.2 °C25 °C88 %1001.7 hPa12.9 kmSSE (160°)40.7 km/h61.2 km/h0.25 mmRainLight Rain
2:11 PM28 °C25 °C84 %1002.4 hPa9.7 kmSSE (160°)37 km/h59.2 km/h0.25 mmRainLight Rain
2:19 PM28 °C24 °C79 %1002.4 hPa16.1 kmSSE (160°)31.5 km/h62.9 km/h0.25 mmOvercast
2:26 PM27 °C24 °C84 %1002.4 hPa16.1 kmSSE (160°)27.8 km/h55.5 km/h0.25 mmRainLight Rain
2:54 PM27.8 °C24.4 °C82 %1001.4 hPa16.1 kmSSE (160°)37 km/h53.8 km/h0.25 mmRainLight Rain
3:30 PM26 °C25 °C94 %1002.4 hPa3.2 kmSSE (160°)25.9 km/h50.1 km/h0.76 mmRainHeavy Rain
3:46 PM27 °C26 °C94 %1002.4 hPa1.3 kmSouth (170°)16.7 km/h48.1 km/h3.05 mmRainHeavy Rain
3:54 PM26.1 °C25.6 °C97 %1001.7 hPa1.6 kmSouth (180°)25.9 km/h38.9 km/h12.19 mmRainLight Rain
3:56 PM27 °C26 °C94 %1002.4 hPa4.8 kmSouth (170°)20.4 km/h38.9 km/h0 mmRainLight Rain
4:43 PM27 °C25 °C89 %1002.7 hPa14.5 kmSouth (170°)29.6 km/h50.1 km/h0 mmMostly Cloudy
4:54 PM27.2 °C25 °C88 %1002 hPa16.1 kmSSE (160°)20.4 km/h37 km/h0 mmMostly Cloudy
5:04 PM27 °C25 °C89 %1003 hPa8 kmSouth (170°)25.9 km/h53.8 km/h0 mmRainLight Rain
5:35 PM26 °C24 °C89 %1003.4 hPa16.1 kmSSE (160°)24.1 km/h42.6 km/h0 mmRainLight Rain
5:45 PM26 °C25 °C94 %1003.7 hPa2.4 kmSouth (170°)20.4 km/h35.2 km/h0.51 mmRainLight Rain
5:52 PM26 °C25 °C94 %1003.4 hPa1.6 kmSouth (180°)18.5 km/h29.6 km/h3.56 mmRainHeavy Rain
5:54 PM25.6 °C25.6 °C100 %1003 hPa3.2 kmSouth (180°)16.7 km/h29.6 km/h4.06 mmRainRain
5:58 PM26 °C26 °C100 %1003.7 hPa6.4 kmSouth (180°)14.8 km/h0.25 mmRainLight Rain
6:04 PM26 °C26 °C100 %1003.7 hPa1.6 kmSSW (200°)18.5 km/h33.3 km/h0.76 mmRainHeavy Rain
6:11 PM26 °C25 °C94 %1004.1 hPa3.2 kmSouth (180°)24.1 km/h42.6 km/h6.86 mmRainRain
6:13 PM26 °C25 °C94 %1004.1 hPa4.8 kmSouth (190°)25.9 km/h42.6 km/h7.11 mmRainLight Rain
6:49 PM26 °C25 °C94 %1003.7 hPa16.1 kmSSE (160°)29.6 km/h38.9 km/h7.87 mmMostly Cloudy
6:54 PM26.1 °C25 °C94 %1003 hPa16.1 kmSouth (170°)24.1 km/h42.6 km/hMostly Cloudy
7:03 PM26 °C26 °C100 %1003.7 hPa16.1 kmSSE (160°)27.8 km/h38.9 km/hMostly Cloudy
7:31 PM27 °C25 °C89 %1004.1 hPa16.1 kmSouth (170°)27.8 km/h40.7 km/hMostly Cloudy
7:54 PM26.7 °C25 °C90 %1003.7 hPa16.1 kmSouth (170°)18.5 km/h35.2 km/hScattered Clouds
8:54 PM26.7 °C24.4 °C87 %1004.7 hPa16.1 kmSouth (170°)25.9 km/h44.4 km/hScattered Clouds
9:50 PM27 °C26 °C94 %1005.1 hPa16.1 kmSouth (170°)16.7 km/h31.5 km/hMostly Cloudy
9:54 PM27.2 °C25.6 °C91 %1004.4 hPa16.1 kmSouth (170°)22.2 km/h33.3 km/hMostly Cloudy
10:05 PM27 °C25 °C89 %1005.1 hPa16.1 kmSouth (170°)20.4 km/h35.2 km/hMostly Cloudy
10:54 PM27.2 °C25 °C88 %1004.1 hPa16.1 kmSouth (170°)31.5 km/h46.3 km/h0 mmMostly Cloudy
11:43 PM27 °C25 °C89 %1004.7 hPa16.1 kmSouth (170°)22.2 km/h35.2 km/h0 mmRainLight Rain
11:54 PM27.2 °C25.6 °C91 %1004.1 hPa16.1 kmSouth (170°)20.4 km/h38.9 km/h0 mmMostly Cloudy
Hourly data recorded from PGUM, located 0 kilometers away from Asatdas, Guam







STORIES FROM OUR PARTNERS